Flag for Finland Weather past 2 weeks in Helsinki, Finland

Now
57 °F

Sunny.


Feels Like: 57 °F
Forecast: 53 / 70 °F
Wind: No wind

Location: Helsinki Malmi Airport

Current Time: Jul 2, 2015 at 12:09:44 AM

Latest Report: Jul 1, 2015 at 11:20 PM


Visibility: 10 mi

Pressure: 30.21 "Hg

Humidity: 72%

Dew point: 48 °F

Location of HelsinkiLocation

Historic Weather in Helsinki — Graph

°F

Helsinki temperature yesterday

Maximum temperature yesterday: 72 °F (at 4:50 PM)
Minimum temperature yesterday: 57 °F (at 2:20 AM)
Average temperature yesterday: 64 °F

Past Weeks' High & Low Weather Summary

 TemperatureHumidityPressure
High72 °F (Jun 29, 3:50 PM)100% (Jun 18, 3:50 PM)30.21 "Hg (Jun 18, 3:50 PM)
Low45 °F (Jun 17, 4:20 AM)34% (Jun 17, 3:50 PM)29.65 "Hg (Jun 18, 5:50 PM)
Average57 °F78%29.86 "Hg
* Reported Jun 16 10:20 PM — Jul 1 10:50 PM, Helsinki, Weather by CustomWeather, © 2015

Note: Actual official high and low records may vary slightly from our data, if they occured in-between our weather recording intervals... More about our weather records

Advertising

Helsinki weather history for previous 24 hours

 ConditionsComfort  
Time TempWeatherWind HumidityBarometerVisibility
10:50 PM
Wed, Jul 1
61 °FSunny.No wind63%30.21 "Hg10 mi
10:20 PM64 °FSunny.2 mph49%30.21 "Hg10 mi
9:50 PM66 °FSunny.5 mph46%30.21 "Hg10 mi
9:20 PM68 °FSunny.8 mph40%30.18 "Hg10 mi
8:50 PM70 °FSunny.9 mph38%30.18 "Hg10 mi
8:20 PM70 °FPassing clouds.10 mph38%30.18 "HgN/A
7:50 PM70 °FSunny.10 mph38%30.18 "Hg10 mi
7:20 PM70 °FPassing clouds.14 mph38%30.15 "HgN/A
6:50 PM72 °FPassing clouds.13 mph38%30.15 "HgN/A
6:20 PM70 °FPassing clouds.13 mph40%30.15 "HgN/A
5:50 PM70 °FPassing clouds.13 mph38%30.15 "HgN/A
5:20 PM72 °FPassing clouds.12 mph38%30.15 "HgN/A
4:50 PM72 °FPassing clouds.14 mph38%30.15 "HgN/A
4:20 PM70 °FPassing clouds.14 mph40%30.15 "HgN/A
3:50 PM70 °FPassing clouds.13 mph43%30.12 "HgN/A
3:20 PM70 °FPassing clouds.14 mph46%30.12 "HgN/A
2:50 PM70 °FPassing clouds.13 mph43%30.12 "HgN/A
2:20 PM68 °FPassing clouds.14 mph49%30.12 "HgN/A
1:50 PM68 °FPassing clouds.15 mph49%30.12 "HgN/A
1:20 PM68 °FPassing clouds.12 mph53%30.12 "HgN/A
12:50 PM66 °FPassing clouds.13 mph52%30.12 "HgN/A
12:20 PM66 °FScattered clouds.13 mph52%30.12 "HgN/A
11:50 AM64 °FScattered clouds.13 mph64%30.12 "HgN/A
11:20 AM64 °FScattered clouds.14 mph64%30.09 "HgN/A
10:50 AM61 °FPartly sunny.13 mph77%30.09 "HgN/A
10:20 AM61 °FPartly sunny.8 mph83%30.09 "HgN/A
9:50 AM59 °FPartly sunny.8 mph82%30.09 "HgN/A
9:20 AM59 °FPartly sunny.9 mph88%30.09 "HgN/A
8:50 AM59 °FPartly sunny.13 mph88%30.09 "HgN/A
8:20 AM59 °FPartly sunny.13 mph88%30.07 "HgN/A
7:50 AM59 °FBroken clouds.9 mph88%30.07 "HgN/A
7:20 AM59 °FMore clouds than sun.9 mph88%30.07 "HgN/A
6:50 AM59 °FPartly sunny.7 mph88%30.04 "HgN/A
6:20 AM59 °FPartly sunny.6 mph88%30.04 "HgN/A
5:50 AM59 °FPartly sunny.7 mph88%30.04 "HgN/A
5:20 AM57 °FBroken clouds.7 mph94%30.04 "HgN/A
4:50 AM57 °FPassing clouds.7 mph94%30.04 "HgN/A
4:20 AM57 °FPassing clouds.6 mph94%30.01 "HgN/A
3:50 AM57 °FPassing clouds.6 mph94%30.01 "HgN/A
3:20 AM59 °FOvercast.6 mph88%30.01 "HgN/A
2:50 AM57 °FPassing clouds.5 mph94%30.01 "HgN/A
2:20 AM57 °FPartly cloudy.5 mph94%30.01 "HgN/A
1:50 AM59 °FOvercast.6 mph94%30.01 "HgN/A
1:20 AM59 °FPassing clouds.3 mph94%29.98 "HgN/A
12:50 AM59 °FMostly cloudy.3 mph94%29.98 "HgN/A
12:20 AM59 °FPartly cloudy.6 mph94%29.98 "HgN/A
Weather by CustomWeather, © 2015

See weather overviewHow to use our weather pages